Location: Treviso
(45.6669°N, 12.2430°E)
Time: 09:55:47
(UTC+02:00)

ISS - Pass Details

Date: 17 May 2018
Orbit: 402 x 407 km, 51.6° (Epoch: 27 May)

Event Time Altitude Azimuth Distance (km) Brightness Sun altitude
Exits shadow 01:06:11 15° 57° (ENE) 1,193 -1.1 -25.1°
Drops below altitude 10° 01:06:52 10° 59° (ENE) 1,468 -0.6 -25.1°
Sets 01:08:56 0° 62° (ENE) 2,320 0.4 -25.1°
